PUA2602 SUMU-SAZN

Flight info

Callsign PUA2602
Flight time N/A
Altitude 34000
Route UGIMI UL405 EZE UT654 BIXIM UT669 ROPON ROPON2Q
Aircraft B738/M-SDE2E3FGHIRWXY/LB1

Departure

Time 2026-04-26 13:18
Airport Carrasco General Cesáreo L. Berisso International Airport (SUMU)

Arrival

Time N/A
Airport Presidente Perón International Airport (SAZN)
Time Latitude Longitude Altitude Speed Heading
2026-04-26 13:03 -34.83617 -56.01804 85 ft 0 kts 144°
2026-04-26 13:10 -34.83616 -56.01805 81 ft 2 kts 144°
2026-04-26 13:10 -34.83603 -56.01817 89 ft 2 kts 144°
2026-04-26 13:10 -34.83589 -56.01829 85 ft 2 kts 143°
2026-04-26 13:10 -34.83576 -56.01841 87 ft 2 kts 143°
2026-04-26 13:11 -34.83571 -56.01846 87 ft 2 kts 143°
2026-04-26 13:11 -34.83557 -56.01857 83 ft 2 kts 185°
2026-04-26 13:11 -34.83545 -56.01849 87 ft 1 kts 230°
2026-04-26 13:11 -34.83544 -56.01847 87 ft 0 kts 231°
2026-04-26 13:13 -34.83545 -56.01849 87 ft 1 kts 232°
2026-04-26 13:13 -34.83558 -56.01870 83 ft 7 kts 234°
2026-04-26 13:13 -34.83604 -56.01946 85 ft 15 kts 233°
2026-04-26 13:14 -34.83676 -56.02062 84 ft 18 kts 233°
2026-04-26 13:14 -34.83748 -56.02181 84 ft 17 kts 233°
2026-04-26 13:14 -34.83848 -56.02241 83 ft 17 kts 185°
2026-04-26 13:14 -34.83942 -56.02280 85 ft 14 kts 246°
2026-04-26 13:15 -34.83946 -56.02393 81 ft 13 kts 270°
2026-04-26 13:15 -34.83946 -56.02504 81 ft 13 kts 270°
2026-04-26 13:15 -34.83947 -56.02628 81 ft 16 kts 265°
2026-04-26 13:15 -34.83994 -56.02759 83 ft 19 kts 236°
2026-04-26 13:16 -34.84010 -56.02922 86 ft 21 kts 270°
2026-04-26 13:16 -34.84050 -56.03072 82 ft 16 kts 199°
2026-04-26 13:16 -34.84152 -56.03031 85 ft 16 kts 157°
2026-04-26 13:16 -34.84181 -56.03067 85 ft 7 kts 306°
2026-04-26 13:17 -34.84074 -56.03076 84 ft 44 kts 359°
2026-04-26 13:17 -34.83490 -56.03086 83 ft 121 kts 359°
2026-04-26 13:18 -34.81125 -56.03115 750 ft 198 kts 357°
2026-04-26 13:18 -34.79722 -56.03348 1399 ft 204 kts 328°
2026-04-26 13:18 -34.78878 -56.06228 2580 ft 215 kts 245°
2026-04-26 13:19 -34.79804 -56.07695 3183 ft 223 kts 231°
2026-04-26 13:19 -34.80865 -56.09103 3788 ft 227 kts 233°
2026-04-26 13:19 -34.81830 -56.10655 4214 ft 240 kts 240°
2026-04-26 13:19 -34.82673 -56.12451 4882 ft 246 kts 246°
2026-04-26 13:20 -34.83393 -56.14322 5838 ft 244 kts 250°
2026-04-26 13:20 -34.84029 -56.16250 6635 ft 247 kts 254°
2026-04-26 13:20 -34.84603 -56.18234 7422 ft 249 kts 256°
2026-04-26 13:20 -34.85130 -56.20256 8252 ft 252 kts 257°
2026-04-26 13:21 -34.85625 -56.22310 9059 ft 255 kts 258°
2026-04-26 13:21 -34.85940 -56.23696 9579 ft 257 kts 259°
2026-04-26 13:21 -34.86560 -56.26559 10360 ft 271 kts 260°
2026-04-26 13:21 -34.87032 -56.28853 10541 ft 294 kts 260°
2026-04-26 13:22 -34.87536 -56.31365 10717 ft 316 kts 260°
2026-04-26 13:22 -34.88067 -56.34054 10888 ft 337 kts 260°
2026-04-26 13:22 -34.88624 -56.36904 11187 ft 350 kts 260°
2026-04-26 13:22 -34.89188 -56.39811 11818 ft 353 kts 260°
2026-04-26 13:23 -34.89746 -56.42715 12616 ft 352 kts 260°
2026-04-26 13:23 -34.90297 -56.45614 13418 ft 351 kts 261°
2026-04-26 13:23 -34.90845 -56.48510 14131 ft 350 kts 261°
2026-04-26 13:23 -34.91390 -56.51406 14764 ft 351 kts 260°
2026-04-26 13:24 -34.91937 -56.54317 15397 ft 352 kts 260°
2026-04-26 13:24 -34.92450 -56.57050 15984 ft 353 kts 260°
2026-04-26 13:24 -34.92944 -56.59683 16553 ft 354 kts 260°
2026-04-26 13:24 -34.93493 -56.62611 17158 ft 355 kts 260°
2026-04-26 13:25 -34.94044 -56.65551 17751 ft 356 kts 260°
2026-04-26 13:25 -34.94417 -56.67545 18143 ft 357 kts 259°
2026-04-26 13:25 -34.94558 -56.68298 18268 ft 358 kts 259°
2026-04-26 13:26 -34.95102 -56.71205 18781 ft 358 kts 260°
2026-04-26 13:26 -34.95654 -56.74159 19315 ft 358 kts 260°
2026-04-26 13:26 -34.96206 -56.77122 19846 ft 358 kts 260°
2026-04-26 13:26 -34.96758 -56.80081 20341 ft 359 kts 260°
2026-04-26 13:27 -34.97311 -56.83056 20841 ft 359 kts 261°
2026-04-26 13:27 -34.97861 -56.86030 21325 ft 359 kts 261°
2026-04-26 13:27 -34.98197 -56.88394 21684 ft 358 kts 265°
2026-04-26 13:27 -34.98329 -56.90526 22009 ft 357 kts 270°
2026-04-26 13:28 -34.98245 -56.93386 22451 ft 357 kts 274°
2026-04-26 13:28 -34.98058 -56.96253 22883 ft 357 kts 274°
2026-04-26 13:28 -34.97934 -56.98559 23221 ft 357 kts 273°
2026-04-26 13:28 -34.97876 -57.01249 23554 ft 358 kts 271°
2026-04-26 13:29 -34.97919 -57.04297 23885 ft 360 kts 269°
2026-04-26 13:29 -34.97989 -57.06358 24103 ft 360 kts 269°
2026-04-26 13:29 -34.98122 -57.10417 24501 ft 362 kts 270°
2026-04-26 13:29 -34.98173 -57.13497 24766 ft 364 kts 270°
2026-04-26 13:30 -34.98183 -57.16595 25020 ft 366 kts 271°
2026-04-26 13:30 -34.98170 -57.19713 25279 ft 368 kts 271°
2026-04-26 13:30 -34.98148 -57.22846 25534 ft 370 kts 271°
2026-04-26 13:30 -34.98125 -57.25989 25781 ft 372 kts 271°
2026-04-26 13:31 -34.98102 -57.29148 26017 ft 374 kts 271°
2026-04-26 13:31 -34.98080 -57.32334 26264 ft 374 kts 271°
2026-04-26 13:31 -34.98073 -57.33361 26358 ft 374 kts 271°
2026-04-26 13:31 -34.98054 -57.36341 26678 ft 373 kts 271°
2026-04-26 13:32 -34.98034 -57.39413 27005 ft 372 kts 271°
2026-04-26 13:32 -34.98013 -57.42656 27320 ft 372 kts 271°
2026-04-26 13:32 -34.97991 -57.45821 27618 ft 372 kts 271°
2026-04-26 13:32 -34.97968 -57.48972 27953 ft 371 kts 271°
2026-04-26 13:33 -34.97999 -57.52119 28253 ft 372 kts 269°
2026-04-26 13:33 -34.98262 -57.55270 28472 ft 376 kts 262°
2026-04-26 13:33 -34.99253 -57.58262 28619 ft 394 kts 243°
2026-04-26 13:33 -35.01061 -57.60840 29050 ft 401 kts 235°
2026-04-26 13:34 -35.03030 -57.63250 29416 ft 401 kts 235°
2026-04-26 13:34 -35.04767 -57.65843 29534 ft 386 kts 251°
2026-04-26 13:34 -35.05717 -57.68891 29452 ft 385 kts 256°
2026-04-26 13:34 -35.06278 -57.70935 29673 ft 382 kts 256°
2026-04-26 13:35 -35.07465 -57.74998 30249 ft 378 kts 254°
2026-04-26 13:35 -35.08491 -57.77960 30555 ft 379 kts 252°
2026-04-26 13:35 -35.09630 -57.80825 30771 ft 381 kts 250°
2026-04-26 13:35 -35.10871 -57.83694 30989 ft 383 kts 249°
2026-04-26 13:36 -35.12160 -57.86544 31243 ft 382 kts 248°
2026-04-26 13:36 -35.13467 -57.89369 31502 ft 382 kts 248°
2026-04-26 13:36 -35.14781 -57.92188 31735 ft 382 kts 248°
2026-04-26 13:36 -35.16098 -57.95006 31948 ft 381 kts 248°
2026-04-26 13:37 -35.17411 -57.97821 32181 ft 381 kts 248°
2026-04-26 13:37 -35.18721 -58.00634 32408 ft 380 kts 248°
2026-04-26 13:37 -35.20028 -58.03445 32621 ft 380 kts 248°
2026-04-26 13:37 -35.21332 -58.06255 32848 ft 379 kts 248°
2026-04-26 13:38 -35.22633 -58.09062 33066 ft 379 kts 248°
2026-04-26 13:38 -35.23782 -58.11544 33259 ft 379 kts 248°
2026-04-26 13:38 -35.25077 -58.14343 33467 ft 378 kts 248°
2026-04-26 13:38 -35.26352 -58.17101 33683 ft 378 kts 248°
2026-04-26 13:39 -35.27667 -58.19949 33873 ft 378 kts 248°
2026-04-26 13:39 -35.28963 -58.22757 34044 ft 378 kts 248°
2026-04-26 13:39 -35.30239 -58.25528 34152 ft 379 kts 248°
2026-04-26 13:39 -35.31495 -58.28256 34270 ft 380 kts 248°
2026-04-26 13:40 -35.32790 -58.31071 34414 ft 380 kts 248°
2026-04-26 13:40 -35.34067 -58.33848 34541 ft 381 kts 248°
2026-04-26 13:40 -35.35368 -58.36680 34657 ft 382 kts 248°
2026-04-26 13:40 -35.36672 -58.39521 34783 ft 382 kts 248°
2026-04-26 13:41 -35.37980 -58.42370 34913 ft 383 kts 248°
2026-04-26 13:41 -35.39241 -58.45121 35015 ft 384 kts 248°
2026-04-26 13:41 -35.40549 -58.47977 35142 ft 384 kts 248°
2026-04-26 13:42 -35.42529 -58.52301 35338 ft 385 kts 248°
2026-04-26 13:42 -35.43820 -58.55126 35451 ft 386 kts 248°
2026-04-26 13:42 -35.45151 -58.58041 35574 ft 386 kts 247°
2026-04-26 13:42 -35.46448 -58.60881 35689 ft 387 kts 247°
2026-04-26 13:43 -35.47760 -58.63759 35811 ft 387 kts 247°
2026-04-26 13:43 -35.50395 -58.69546 35864 ft 389 kts 247°
2026-04-26 13:44 -35.53034 -58.75350 35868 ft 389 kts 247°
2026-04-26 13:44 -35.55224 -58.80174 35868 ft 389 kts 247°
2026-04-26 13:45 -35.58296 -58.86952 35868 ft 389 kts 247°
2026-04-26 13:45 -35.60889 -58.92685 35868 ft 389 kts 247°
2026-04-26 13:46 -35.63071 -58.97517 35869 ft 389 kts 247°
2026-04-26 13:46 -35.66125 -59.04291 35869 ft 389 kts 247°
2026-04-26 13:47 -35.68306 -59.09139 35869 ft 390 kts 246°
2026-04-26 13:47 -35.70792 -59.14670 35871 ft 390 kts 246°
2026-04-26 13:48 -35.73418 -59.20526 35856 ft 390 kts 246°
2026-04-26 13:48 -35.75987 -59.26260 35869 ft 390 kts 246°
2026-04-26 13:49 -35.78620 -59.32151 35867 ft 390 kts 246°
2026-04-26 13:49 -35.81191 -59.37912 35867 ft 389 kts 246°
2026-04-26 13:50 -35.83797 -59.43761 35863 ft 389 kts 246°
2026-04-26 13:50 -35.86403 -59.49622 35865 ft 389 kts 246°
2026-04-26 13:51 -35.89011 -59.55496 35865 ft 390 kts 246°
2026-04-26 13:51 -35.91594 -59.61324 35868 ft 390 kts 246°
2026-04-26 13:52 -35.94195 -59.67206 35870 ft 390 kts 246°
2026-04-26 13:52 -35.96512 -59.72452 35869 ft 391 kts 246°
2026-04-26 13:53 -35.98721 -59.77462 35875 ft 391 kts 246°
2026-04-26 13:53 -36.01206 -59.83106 35870 ft 392 kts 246°
2026-04-26 13:54 -36.03770 -59.88939 35871 ft 392 kts 246°
2026-04-26 13:54 -36.06375 -59.94878 35879 ft 393 kts 246°
2026-04-26 13:55 -36.09846 -60.02806 35881 ft 394 kts 246°
2026-04-26 13:56 -36.14203 -60.12784 35879 ft 395 kts 246°
2026-04-26 13:56 -36.16812 -60.18773 35882 ft 395 kts 245°
2026-04-26 13:57 -36.19419 -60.24768 35895 ft 395 kts 245°
2026-04-26 13:57 -36.22007 -60.30731 35889 ft 396 kts 245°
2026-04-26 13:58 -36.24609 -60.36737 35891 ft 396 kts 245°
2026-04-26 13:58 -36.27210 -60.42752 35893 ft 396 kts 245°
2026-04-26 13:59 -36.29808 -60.48771 35902 ft 396 kts 245°
2026-04-26 13:59 -36.32402 -60.54790 35902 ft 395 kts 245°
2026-04-26 14:00 -36.37576 -60.66831 35905 ft 395 kts 245°
2026-04-26 14:01 -36.40153 -60.72846 35913 ft 395 kts 245°
2026-04-26 14:01 -36.42723 -60.78855 35921 ft 394 kts 245°
2026-04-26 14:02 -36.45295 -60.84879 35916 ft 395 kts 245°
2026-04-26 14:02 -36.47862 -60.90904 35921 ft 395 kts 245°
2026-04-26 14:03 -36.50412 -60.96898 35918 ft 394 kts 245°
2026-04-26 14:03 -36.52971 -61.02926 35924 ft 394 kts 245°
2026-04-26 14:04 -36.55530 -61.08964 35925 ft 394 kts 244°